Probability
3 3 6 6 3 6 6 6 3 0 3 6 6 6 6 6 6 3 0 39 52 58 48 52 52 48 45 39 39 45 48 48 48 45 45 39 35 29 26 29 32 35 29
10 10 10 6 6 6 6 6 6 0 6 6 6 6 6 3 0 3 6 19 55 55 52 48 58 55 52 48 42 45 48 48 55 45 48 45 42 39 29 26 32 35 29
13 13 13 16 6 3 6 6 3 0 3 6 10 6 3 3 0 3 3 6 3 48 52 55 52 55 52 48 42 45 52 52 48 45 45 45 39 42 32 29 23 26 29
23 13 19 6 6 13 6 10 3 3 3 6 0 0 3 6 0 0 3 3 0 0 26 45 48 52 45 48 48 45 42 45 39 42 42 45 42 35 32 23 23 26 29
23 23 19 13 16 13 10 10 6 10 6 10 3 0 0 3 3 3 0 0 0 0 3 10 48 48 48 45 45 42 42 42 39 39 39 35 35 29 26 23 23 26 19
23 19 26 23 23 16 6 3 6 10 10 10 3 3 0 0 0 0 10 3 0 0 0 3 6 26 48 48 48 42 42 42 39 39 39 39 35 29 23 26 23 19 16
26 19 19 16 16 23 23 13 13 10 13 6 0 0 0 0 3 3 3 3 3 0 0 0 0 3 13 45 52 45 39 42 39 35 35 32 26 29 26 23 23 23 16
19 23 16 19 19 23 23 19 16 13 13 10 3 0 0 0 0 6 6 6 3 3 0 3 0 0 3 10 19 39 52 42 42 35 32 26 19 26 23 23 23 23 16
16 26 23 23 23 23 23 19 16 19 19 16 13 6 3 0 0 0 3 3 3 3 3 3 3 6 3 6 6 10 42 39 39 35 29 23 26 19 23 19 19 23 16
13 16 19 19 19 23 23 19 23 19 16 19 13 10 6 0 0 0 0 0 0 0 3 6 3 3 3 3 3 3 13 26 39 39 32 26 26 19 19 19 19 19 16
19 16 16 26 16 23 26 19 23 16 16 19 19 16 13 10 3 0 0 0 0 0 3 3 0 0 0 3 3 3 6 10 13 26 32 26 26 23 19 19 16 16 19
16 13 19 32 26 23 29 26 32 26 23 23 26 26 19 13 10 6 3 3 3 3 0 0 0 0 0 0 3 6 3 3 3 10 13 19 19 19 23 19 19 16 19
23 16 19 29 32 26 32 32 29 29 23 23 23 23 23 23 13 3 3 6 3 3 3 0 0 0 3 3 0 0 3 3 3 0 0 6 10 19 19 19 23 23 19
23 26 26 23 35 32 35 39 39 35 26 23 23 23 23 26 23 23 16 13 10 3 3 3 0 0 0 3 3 0 6 3 3 0 0 0 3 10 10 10 16 19 23
35 35 32 32 29 35 32 29 29 29 26 29 26 26 19 19 19 23 19 16 13 13 10 3 6 3 3 3 3 6 10 6 3 0 0 0 0 3 6 6 10 6 3
29 29 32 35 35 32 29 29 26 23 26 26 29 29 23 19 19 19 19 19 13 13 13 10 6 10 10 10 6 6 6 10 3 3 0 0 0 0 0 0 0 0 0
29 32 32 32 32 29 32 32 29 29 29 26 26 26 26 23 19 19 16 16 16 16 16 10 10 10 13 10 6 3 3 3 13 6 3 0 0 0 0 0 0 0 0
32 26 32 39 39 32 29 29 32 35 35 35 32 32 29 23 19 19 16 19 19 16 16 16 16 13 16 10 6 6 6 6 6 6 6 0 0 0 0 0 0 0 0
29 32 32 29 32 32 32 32 32 32 29 29 29 29 29 29 26 23 26 23 23 26 16 16 16 10 10 6 6 3 6 6 6 6 6 6 0 0 0 0 0 0 0
23 23 29 29 29 32 26 26 29 29 26 26 26 23 23 19 23 23 23 26 26 16 10 10 10 10 3 0 6 10 3 3 3 6 6 6 6 3 0 0 0 0 0
32 29 26 26 26 26 26 29 29 29 29 32 29 26 26 23 19 19 23 19 16 13 10 10 10 10 10 10 10 6 6 3 0 3 6 3 3 3 0 0 0 0 0
29 29 29 29 26 26 26 23 26 29 32 29 29 26 26 23 19 16 13 10 10 13 16 16 10 13 10 10 6 10 0 0 3 0 3 6 6 3 0 0 0 0 0
23 23 29 29 29 26 26 13 13 16 26 32 32 29 32 29 16 13 16 3 3 3 6 6 13 10 10 10 10 6 3 3 3 0 6 6 0 0 0 0 0 0 0
29 23 23 26 26 29 23 13 13 13 16 19 26 29 29 26 16 16 16 13 10 6 3 0 0 6 6 3 6 6 6 6 0 0 3 0 0 0 3 3 0 0 0
26 26 23 23 23 19 19 13 3 6 6 16 16 19 19 13 10 3 10 13 13 13 6 0 0 0 0 3 3 0 3 3 0 0 0 0 0 0 3 0 0 0 0
26 23 19 19 19 19 13 6 0 10 10 6 10 13 10 10 10 0 3 13 10 10 10 6 0 0 0 0 0 0 3 3 0 0 0 0 3 3 3 0 0 0 0
Height
5901 5900 5900 5899 5898 5897 5896 5895 5895 5894 5893 5892 5891 5889 5888 5886 5884 5883 5881 5880 5878 5877 5875 5874 5873 5872 5872 5871 5871 5871 5870 5870 5870 5870 5869 5869 5869 5869 5869 5869 5869 5870 5870
5902 5901 5900 5900 5899 5898 5897 5896 5895 5895 5894 5893 5891 5890 5888 5887 5885 5883 5882 5880 5879 5877 5876 5874 5874 5873 5872 5871 5871 5870 5870 5870 5870 5869 5869 5869 5869 5868 5868 5868 5868 5869 5869
5902 5901 5901 5900 5899 5898 5898 5897 5896 5895 5894 5893 5892 5890 5889 5887 5885 5884 5882 5881 5879 5878 5876 5875 5874 5873 5872 5871 5871 5870 5870 5870 5869 5869 5869 5868 5868 5868 5868 5868 5868 5868 5868
5902 5902 5901 5900 5900 5899 5898 5897 5896 5895 5895 5893 5892 5891 5889 5888 5886 5885 5883 5881 5880 5878 5877 5875 5874 5873 5872 5871 5871 5870 5869 5869 5869 5868 5868 5867 5867 5867 5867 5867 5867 5867 5867
5903 5902 5901 5901 5900 5899 5898 5898 5897 5896 5895 5894 5892 5891 5889 5888 5886 5885 5883 5882 5880 5878 5877 5876 5875 5874 5872 5871 5871 5870 5869 5868 5868 5867 5867 5866 5866 5866 5866 5866 5866 5866 5865
5902 5902 5901 5901 5900 5899 5899 5898 5897 5896 5895 5894 5892 5891 5889 5888 5886 5885 5883 5882 5880 5879 5877 5876 5875 5874 5873 5871 5870 5870 5869 5868 5867 5866 5866 5865 5865 5865 5865 5864 5864 5864 5864
5902 5902 5901 5901 5900 5899 5898 5898 5897 5896 5895 5893 5892 5891 5889 5888 5886 5885 5883 5881 5880 5879 5878 5876 5875 5873 5872 5871 5870 5869 5868 5867 5866 5865 5865 5864 5863 5863 5863 5863 5863 5863 5862
5902 5902 5901 5900 5900 5899 5898 5897 5896 5895 5894 5893 5892 5890 5889 5888 5886 5885 5883 5881 5880 5879 5877 5876 5874 5873 5872 5871 5870 5868 5867 5866 5865 5864 5863 5863 5862 5862 5861 5861 5861 5860 5860
5902 5901 5900 5900 5899 5898 5897 5896 5895 5894 5893 5892 5891 5890 5888 5887 5886 5884 5882 5881 5879 5878 5876 5875 5874 5872 5871 5870 5869 5868 5866 5865 5864 5863 5862 5861 5860 5860 5859 5859 5859 5858 5858
5901 5900 5900 5899 5898 5897 5896 5895 5894 5893 5892 5891 5890 5888 5887 5886 5884 5883 5882 5880 5878 5877 5875 5874 5873 5871 5870 5869 5867 5866 5865 5864 5862 5862 5860 5859 5858 5858 5857 5856 5856 5855 5855
5900 5900 5899 5898 5897 5896 5895 5894 5892 5891 5890 5889 5888 5886 5885 5884 5882 5881 5880 5878 5877 5875 5874 5873 5871 5870 5869 5868 5866 5865 5863 5862 5861 5860 5859 5857 5856 5855 5854 5853 5853 5852 5852
5899 5898 5897 5897 5896 5894 5893 5892 5891 5889 5888 5887 5886 5884 5883 5881 5880 5878 5877 5876 5874 5873 5871 5870 5869 5868 5867 5865 5864 5863 5861 5860 5859 5857 5856 5855 5854 5852 5851 5850 5849 5849 5848
5897 5896 5896 5895 5894 5893 5891 5890 5889 5887 5886 5885 5883 5881 5880 5879 5877 5875 5874 5873 5872 5871 5869 5867 5866 5865 5864 5863 5861 5860 5859 5857 5856 5855 5853 5852 5851 5849 5848 5847 5846 5845 5844
5895 5894 5894 5893 5892 5891 5890 5888 5887 5885 5884 5882 5880 5878 5877 5875 5874 5872 5871 5870 5869 5868 5866 5865 5863 5862 5861 5859 5858 5857 5855 5854 5852 5851 5850 5849 5847 5846 5845 5843 5842 5841 5840
5893 5892 5891 5890 5889 5888 5887 5886 5884 5882 5881 5879 5877 5875 5873 5872 5870 5869 5867 5866 5865 5864 5863 5862 5860 5858 5857 5856 5855 5853 5852 5850 5849 5847 5846 5845 5843 5842 5840 5839 5838 5837 5835
5890 5889 5888 5888 5887 5886 5884 5883 5881 5879 5877 5875 5873 5872 5870 5868 5867 5865 5863 5862 5861 5860 5859 5858 5857 5855 5853 5852 5851 5849 5848 5846 5845 5843 5842 5841 5839 5838 5836 5835 5834 5832 5831
5887 5886 5885 5884 5883 5882 5881 5879 5878 5876 5874 5872 5870 5868 5867 5865 5863 5862 5860 5858 5857 5855 5854 5854 5852 5850 5849 5848 5846 5845 5843 5842 5841 5839 5838 5836 5835 5833 5832 5830 5829 5827 5826
5884 5883 5882 5881 5880 5879 5877 5876 5874 5872 5870 5868 5867 5865 5863 5861 5860 5858 5855 5854 5852 5851 5849 5848 5847 5845 5844 5842 5841 5840 5838 5837 5836 5834 5833 5831 5830 5828 5826 5825 5823 5822 5821
5880 5879 5878 5877 5876 5874 5873 5871 5870 5868 5866 5864 5862 5860 5858 5856 5855 5853 5851 5849 5847 5846 5844 5843 5842 5840 5838 5837 5835 5834 5832 5832 5830 5829 5828 5826 5824 5823 5821 5819 5818 5816 5815
5876 5875 5874 5872 5871 5869 5868 5867 5865 5863 5861 5859 5857 5855 5853 5851 5849 5847 5845 5843 5842 5840 5838 5837 5835 5834 5832 5831 5829 5827 5826 5825 5824 5823 5822 5820 5819 5817 5815 5814 5812 5810 5809
5871 5870 5869 5867 5866 5864 5863 5861 5860 5858 5855 5853 5851 5849 5847 5845 5843 5841 5839 5837 5836 5834 5832 5830 5829 5827 5826 5824 5822 5821 5820 5819 5818 5816 5815 5814 5812 5811 5809 5807 5806 5804 5803
5866 5865 5863 5862 5860 5859 5857 5855 5854 5852 5850 5848 5845 5843 5841 5839 5836 5834 5833 5831 5829 5827 5825 5823 5821 5820 5818 5817 5815 5814 5813 5812 5811 5810 5808 5807 5805 5804 5802 5801 5799 5797 5795
5860 5859 5857 5856 5855 5853 5851 5849 5847 5845 5843 5841 5838 5836 5834 5831 5829 5827 5825 5823 5821 5819 5818 5816 5813 5812 5811 5809 5808 5806 5805 5803 5802 5801 5800 5799 5797 5796 5794 5793 5791 5789 5788
5854 5852 5851 5850 5848 5846 5844 5843 5841 5839 5836 5834 5832 5830 5827 5824 5822 5820 5818 5816 5814 5812 5810 5808 5806 5804 5803 5801 5799 5798 5796 5795 5794 5792 5791 5790 5789 5787 5786 5784 5783 5781 5779
5847 5846 5844 5843 5841 5839 5837 5836 5834 5832 5829 5827 5824 5822 5820 5817 5815 5813 5810 5808 5806 5804 5802 5800 5798 5796 5794 5792 5791 5789 5788 5787 5785 5784 5782 5781 5780 5778 5777 5776 5774 5772 5771
5840 5838 5837 5835 5834 5832 5830 5829 5827 5824 5822 5819 5817 5815 5812 5810 5807 5804 5802 5800 5798 5796 5793 5791 5789 5788 5786 5784 5782 5780 5779 5778 5776 5775 5774 5772 5770 5769 5768 5767 5765 5763 5761
Wind_Speed
5 6 5 6 6 7 7 7 7 7 6 7 7 7 7 8 8 8 7 6 6 5 5 4 3 2 1 1 1 2 2 2 2 2 2 3 3 3 3 4 5 5 6
6 5 5 5 5 6 6 6 6 7 7 7 7 7 7 7 8 8 7 6 6 7 6 5 4 3 2 2 1 1 1 1 2 2 2 3 3 4 4 4 4 5 5
6 5 5 5 5 5 5 5 5 6 6 6 7 7 7 7 7 7 7 7 6 6 6 6 5 4 3 3 2 1 2 2 2 2 2 2 3 3 4 4 4 5 5
5 5 6 5 5 5 5 5 5 5 6 6 6 6 6 6 7 7 7 7 7 6 6 6 6 5 4 3 2 2 2 2 2 2 2 2 3 3 3 4 4 5 5
4 5 5 5 4 5 5 5 5 6 5 6 6 6 6 6 6 6 7 7 7 6 5 5 5 5 4 3 3 2 2 2 2 2 3 3 4 4 4 4 4 5 6
4 4 4 5 4 4 4 4 5 5 6 6 6 6 6 6 6 6 6 7 6 6 5 4 4 4 4 4 3 3 3 3 3 3 4 4 5 5 5 6 6 6 6
3 3 3 4 4 4 4 4 5 5 5 6 7 6 6 6 6 6 6 6 6 5 5 4 4 4 4 4 3 3 3 3 4 4 5 5 5 6 7 7 7 7 8
3 3 3 4 5 4 4 4 5 5 6 6 6 6 6 6 6 6 6 6 6 5 4 4 5 4 3 4 4 4 4 4 4 4 5 6 6 6 7 7 8 9 9
3 3 4 4 4 5 5 5 5 6 5 6 6 6 6 6 7 7 7 6 6 5 4 4 4 4 4 4 4 4 4 4 4 5 5 6 7 7 8 8 8 9 9
3 3 3 3 4 5 6 6 6 6 6 6 7 6 7 7 7 8 7 6 6 6 5 5 5 6 6 5 6 6 5 5 5 6 6 7 7 8 10 10 10 10 11
3 3 4 4 5 5 6 6 6 6 6 7 7 7 8 8 8 8 8 7 7 7 7 7 7 7 7 7 7 7 7 6 7 7 8 8 8 8 9 10 11 12 12
3 4 5 5 5 6 6 7 7 7 7 7 8 8 9 9 9 9 8 8 9 8 9 9 9 9 9 8 8 8 8 8 8 9 9 9 9 10 10 10 11 12 13
4 5 5 6 6 7 7 8 8 8 8 9 9 10 11 11 11 10 10 10 10 10 9 9 10 10 10 10 9 10 10 11 11 10 10 11 11 11 11 12 13 14 14
5 6 6 6 7 8 8 9 9 9 10 11 11 12 12 12 12 12 12 12 12 11 11 11 12 12 11 12 12 12 12 13 12 12 11 12 12 12 13 13 14 14 15
7 7 7 7 8 8 9 10 11 11 12 12 13 13 13 13 12 12 13 14 13 13 13 14 13 13 13 14 14 14 14 13 13 13 13 13 13 13 14 14 13 14 15
8 9 9 9 9 10 11 12 12 13 13 14 14 14 13 12 13 14 14 14 15 15 14 15 15 15 15 14 15 15 15 15 15 15 15 14 14 14 14 15 15 15 15
9 9 9 10 11 12 12 13 14 15 14 14 14 13 13 14 15 15 16 15 16 16 16 16 16 16 16 16 16 16 16 16 16 15 16 16 16 16 16 16 16 16 16
11 12 12 12 13 14 14 14 15 15 15 15 15 15 15 15 16 17 17 17 17 18 18 18 18 18 17 17 17 17 17 17 17 17 17 17 17 18 18 18 18 17 17
13 14 14 15 15 15 15 16 16 17 17 17 17 17 17 18 18 18 19 19 19 20 20 19 19 19 18 18 18 19 18 18 19 19 18 18 19 19 19 19 20 19 18
14 15 15 16 17 17 17 17 18 19 19 19 18 19 19 20 20 20 20 21 21 21 21 21 21 21 21 21 20 19 19 20 20 20 20 20 20 20 20 20 20 20 20
16 16 17 18 19 19 19 19 20 21 21 20 20 21 22 22 22 22 22 22 22 23 23 23 23 23 23 23 22 21 22 22 22 22 22 22 22 22 22 22 22 22 23
19 19 19 20 21 21 21 21 22 22 23 23 23 24 24 23 23 23 23 23 23 24 25 26 25 24 25 25 24 24 23 23 24 24 24 24 25 24 25 25 25 25 24
21 21 21 22 22 23 23 24 24 24 24 24 24 25 24 24 24 24 24 25 25 26 26 27 26 26 26 26 26 26 25 25 25 26 26 26 27 27 27 27 27 26 26
22 22 23 23 24 24 25 25 25 25 24 25 25 25 25 25 25 26 25 26 26 26 26 26 26 26 26 27 26 27 26 26 26 27 27 27 27 28 28 28 27 27 27
23 24 24 25 25 25 26 26 25 26 26 26 26 26 26 26 27 27 27 26 27 27 27 27 26 26 26 27 27 27 27 27 26 27 27 28 27 27 28 27 28 28 28
24 25 25 26 26 27 27 27 27 27 27 27 27 28 27 28 28 28 28 28 28 27 27 27 27 27 27 27 27 27 28 28 28 27 28 29 28 28 28 29 30 30 29
Wind_Direction
63 62 66 67 68 63 58 58 53 50 52 46 44 44 37 31 29 29 30 32 29 26 27 27 17 8 338 315 303 273 268 263 255 270 252 250 243 238 241 248 241 228 229
65 65 65 65 65 62 59 53 50 53 52 44 39 38 37 35 34 32 33 37 35 34 35 34 34 24 17 5 345 291 279 266 261 269 264 262 254 250 249 252 247 237 234
61 58 61 66 65 60 51 46 52 49 42 38 37 34 33 39 37 35 34 35 37 40 40 43 43 36 34 24 2 315 289 277 269 271 268 266 258 246 247 249 247 244 242
63 59 57 64 64 55 46 46 48 43 36 33 35 33 28 29 32 33 29 29 32 35 40 45 44 41 42 30 12 342 306 291 278 268 262 265 260 253 247 248 250 250 247
59 51 48 52 58 53 48 43 36 32 27 22 18 13 17 21 17 20 23 23 24 27 35 42 42 38 35 28 14 7 337 301 286 273 267 269 265 261 258 261 259 257 255
49 40 36 37 40 38 33 28 17 7 10 6 3 2 4 7 9 10 14 17 17 17 21 26 33 32 32 36 25 7 345 308 291 280 277 280 275 268 264 265 265 264 260
40 30 22 27 22 19 16 8 2 357 355 355 351 354 359 4 357 355 356 4 8 13 16 22 29 29 29 30 26 13 355 322 297 285 282 282 280 274 268 264 264 264 263
26 21 26 28 20 11 8 359 352 348 345 348 350 348 348 347 341 342 348 352 355 5 11 15 18 17 15 12 8 5 357 342 317 297 286 283 282 279 273 268 267 265 262
20 25 26 18 13 6 359 352 349 349 345 342 342 341 343 345 339 335 336 342 346 349 349 348 352 358 358 352 346 338 336 331 327 319 303 289 284 279 274 272 268 267 263
353 352 4 358 354 350 350 348 346 347 339 333 331 329 326 325 329 328 327 331 333 330 336 336 331 330 330 328 335 331 322 316 312 310 306 298 292 283 277 275 273 273 271
319 328 331 334 338 340 340 338 338 336 331 325 320 318 316 314 313 314 319 318 320 318 321 320 316 315 317 315 318 319 318 314 311 305 304 300 295 292 284 276 274 273 273
308 314 310 309 316 321 325 325 327 327 323 314 310 309 309 307 308 308 306 305 307 311 315 311 308 306 306 307 310 310 308 308 308 303 302 299 296 294 289 282 276 273 274
299 309 306 303 304 309 313 316 318 319 317 314 310 306 305 305 307 305 303 303 304 302 313 314 305 302 302 302 305 305 302 302 302 301 302 300 296 293 291 289 284 279 279
293 297 296 296 298 305 310 313 314 314 313 312 311 305 302 303 304 301 301 303 304 301 302 308 304 298 298 301 301 302 302 301 299 301 300 301 299 297 294 293 288 286 285
293 292 294 295 298 305 308 307 308 309 312 309 308 306 302 303 303 300 298 298 298 296 298 300 303 299 296 295 295 297 299 300 301 299 298 298 297 298 299 299 296 293 291
288 291 292 293 295 301 302 303 305 307 309 308 306 305 303 302 303 302 298 296 294 292 292 294 295 295 293 293 293 295 296 297 298 297 298 297 296 296 296 298 297 295 292
286 291 291 291 292 295 299 300 301 303 306 307 306 304 304 304 302 303 301 297 293 291 291 292 293 292 293 294 290 292 294 294 293 292 293 293 293 293 292 292 292 292 290
282 287 290 290 290 291 294 297 299 300 302 302 301 300 302 301 299 300 299 297 293 290 289 289 291 291 290 290 289 288 287 288 289 289 289 291 292 293 291 290 288 290 289
284 286 289 290 290 290 292 294 296 297 298 298 297 296 297 299 296 295 296 295 293 291 290 290 289 289 287 287 287 286 283 284 285 287 288 288 289 292 292 291 290 290 289
282 283 284 287 288 288 289 290 292 292 292 292 294 296 297 297 296 294 294 294 292 291 291 290 290 289 287 286 285 284 282 283 284 284 285 288 289 289 289 290 290 290 289
283 281 281 284 286 287 288 288 290 289 289 289 291 296 296 295 295 295 293 293 291 290 289 288 287 288 288 286 284 282 281 280 281 281 283 286 287 286 286 288 289 288 287
281 280 280 281 284 286 288 288 289 289 289 289 290 292 294 293 293 292 292 292 291 290 289 287 285 285 286 285 284 281 279 279 280 280 281 283 285 285 285 285 285 285 284
280 281 281 281 283 284 285 287 289 288 289 291 292 294 295 294 293 292 291 292 292 292 291 289 285 285 285 285 284 282 278 277 279 280 280 281 282 283 283 283 283 283 282
280 281 280 280 281 282 284 287 287 287 290 291 292 294 295 295 295 293 292 293 292 292 292 292 289 287 286 285 284 282 279 280 280 280 281 281 281 282 282 282 282 282 282
281 281 280 280 281 283 284 288 288 291 293 294 294 295 296 296 296 296 295 294 292 292 292 292 290 288 287 285 284 283 282 283 282 282 282 283 282 283 283 282 281 281 281
282 281 281 282 284 285 287 289 290 291 292 293 293 294 294 294 296 296 294 292 292 291 290 291 290 288 287 286 285 284 283 283 283 282 284 284 283 282 281 282 281 280 279